Time,TemperatureF,DewpointF,PressureIn,WindDirection,WindDirectionDegrees,WindSpeedMPH,WindSpeedGustMPH,Humidity,HourlyPrecipIn,Conditions,Clouds,dailyrainin,SoftwareType,DateUTC
2013-05-17 00:03:00,51.0,-99.9,-100.00,SSW,209,0.0,0.0,-999,-99.99,,,-99.99,,2013-05-17 07:03:00,
2013-05-17 00:21:00,51.0,-99.9,-100.00,NW,319,0.0,0.0,-999,-99.99,,,-99.99,,2013-05-17 07:21:00,
2013-05-17 00:30:00,51.0,-99.9,-100.00,SW,225,0.0,0.0,-999,-99.99,,,-99.99,,2013-05-17 07:30:00,
2013-05-17 00:32:00,52.0,-99.9,-100.00,SW,226,0.0,0.0,-999,-99.99,,,-99.99,,2013-05-17 07:32:00,
2013-05-17 00:43:00,52.0,-99.9,-100.00,SW,226,0.0,0.0,-999,-99.99,,,-99.99,,2013-05-17 07:43:00,
2013-05-17 00:53:00,51.0,-99.9,-100.00,SW,227,0.0,0.0,-999,-99.99,,,-99.99,,2013-05-17 07:53:00,
2013-05-17 01:03:00,51.0,-99.9,-100.00,SW,225,0.0,0.0,-999,-99.99,,,-99.99,,2013-05-17 08:03:00,
2013-05-17 01:12:00,51.0,-99.9,-100.00,SW,225,0.0,0.0,-999,-99.99,,,-99.99,,2013-05-17 08:12:00,
2013-05-17 01:23:00,51.0,-99.9,-100.00,SW,225,0.0,0.0,-999,-99.99,,,-99.99,,2013-05-17 08:23:00,
2013-05-17 03:03:00,53.0,-99.9,-100.00,West,269,0.0,0.0,-999,-99.99,,,-99.99,,2013-05-17 10:03:00,
2013-05-17 03:12:00,53.0,-99.9,-100.00,West,269,0.0,0.0,-999,-99.99,,,-99.99,,2013-05-17 10:12:00,
2013-05-17 03:23:00,53.0,-99.9,-100.00,West,269,0.0,0.0,-999,-99.99,,,-99.99,,2013-05-17 10:23:00,
2013-05-17 05:50:00,51.0,-99.9,-100.00,WSW,241,0.0,0.0,-999,-99.99,,,-99.99,,2013-05-17 12:50:00,
2013-05-17 06:04:00,51.0,-99.9,-100.00,WSW,248,0.0,0.0,-999,-99.99,,,-99.99,,2013-05-17 13:04:00,
2013-05-17 06:12:00,51.0,-99.9,-100.00,WSW,248,0.0,0.0,-999,-99.99,,,-99.99,,2013-05-17 13:12:00,
2013-05-17 06:23:00,51.0,-99.9,-100.00,WSW,248,0.0,0.0,-999,-99.99,,,-99.99,,2013-05-17 13:23:00,
2013-05-17 06:33:00,51.0,-99.9,-100.00,WSW,241,0.0,0.0,-999,-99.99,,,-99.99,,2013-05-17 13:33:00,
2013-05-17 06:42:00,51.0,-99.9,-100.00,WSW,241,0.0,0.0,-999,-99.99,,,-99.99,,2013-05-17 13:42:00,
2013-05-17 07:30:00,52.0,-99.9,-100.00,SW,232,0.0,0.0,-999,-99.99,,,-99.99,,2013-05-17 14:30:00,
2013-05-17 08:05:00,52.0,-99.9,-100.00,WSW,249,0.0,0.0,-999,-99.99,,,-99.99,,2013-05-17 15:05:00,
2013-05-17 08:25:00,52.0,-99.9,-100.00,SW,232,0.0,0.0,-999,-99.99,,,-99.99,,2013-05-17 15:25:00,
2013-05-17 08:35:00,55.0,-99.9,-100.00,WSW,249,0.0,0.0,-999,-99.99,,,-99.99,,2013-05-17 15:35:00,
2013-05-17 08:57:00,52.0,-99.9,-100.00,WSW,249,0.0,0.0,-999,-99.99,,,-99.99,,2013-05-17 15:57:00,
2013-05-17 09:26:00,55.0,-99.9,-100.00,WSW,249,0.0,0.0,-999,-99.99,,,-99.99,,2013-05-17 16:26:00,
2013-05-17 11:35:00,62.0,-99.9,-100.00,NW,320,0.0,0.0,-999,-99.99,,,-99.99,,2013-05-17 18:35:00,
2013-05-17 12:31:00,62.0,-99.9,-100.00,NW,320,0.0,0.0,-999,-99.99,,,-99.99,,2013-05-17 19:31:00,
2013-05-17 14:35:00,67.0,-99.9,-100.00,WSW,249,0.0,0.0,-999,-99.99,,,-99.99,,2013-05-17 21:35:00,
2013-05-17 15:28:00,67.0,-99.9,-100.00,WSW,249,0.0,0.0,-999,-99.99,,,-99.99,,2013-05-17 22:28:00,
2013-05-17 18:24:00,63.0,-99.9,-100.00,East,92,0.0,0.0,-999,-99.99,,,-99.99,,2013-05-18 01:24:00,
2013-05-17 18:32:00,63.0,-99.9,-100.00,East,92,0.0,0.0,-999,-99.99,,,-99.99,,2013-05-18 01:32:00,
2013-05-17 20:20:00,56.0,-99.9,-100.00,SW,225,0.0,0.0,-999,-99.99,,,-99.99,,2013-05-18 03:20:00,
2013-05-17 20:50:00,56.0,-99.9,-100.00,SW,216,0.0,0.0,-999,-99.99,,,-99.99,,2013-05-18 03:50:00,
2013-05-17 21:03:00,56.0,-99.9,-100.00,SW,225,0.0,0.0,-999,-99.99,,,-99.99,,2013-05-18 04:03:00,
2013-05-17 21:13:00,56.0,-99.9,-100.00,SW,225,0.0,0.0,-999,-99.99,,,-99.99,,2013-05-18 04:13:00,
2013-05-17 21:33:00,56.0,-99.9,-100.00,SW,216,0.0,0.0,-999,-99.99,,,-99.99,,2013-05-18 04:33:00,
2013-05-17 21:43:00,56.0,-99.9,-100.00,SW,216,0.0,0.0,-999,-99.99,,,-99.99,,2013-05-18 04:43:00,
2013-05-17 22:02:00,55.0,-99.9,-100.00,SW,227,0.0,0.0,-999,-99.99,,,-99.99,,2013-05-18 05:02:00,
2013-05-17 22:13:00,55.0,-99.9,-100.00,SW,227,0.0,0.0,-999,-99.99,,,-99.99,,2013-05-18 05:13:00,
2013-05-17 22:22:00,55.0,-99.9,-100.00,SW,227,0.0,0.0,-999,-99.99,,,-99.99,,2013-05-18 05:22:00,